Location: L�Adrech
(44.2500°N, 6.4167°E)
Time: 01:43:36
(UTC+00:00)

BREEZE-M DEB (TANK) - Pass Details

Date: 07 June 2020
Orbit: 273 x 20509 km, 49.2° (Epoch: 11 July)

Event Time Altitude Azimuth Distance (km) Brightness Sun altitude
Exits shadow 01:19:36 47° 10° (N) 391 2.5 -18.7°
Drops below altitude 10° 01:21:43 10° 61° (ENE) 1,379 5.7 -18.5°
Sets 01:24:30 0° 67° (ENE) 2,870 7.3 -18.3°
